Lid_Strength_Index
3 4 3 1 1 1 1 1 1 1 0 0 0 1 1 2 2 2 2 2 2 1
4 3 2 2 1 1 1 1 1 1 1 1 1 1 1 2 2 2 2 2 2 2
4 3 2 1 1 1 1 1 1 1 1 1 1 1 2 2 2 2 2 2 2 2
5 4 3 1 1 3 2 1 1 1 1 1 2 1 2 2 3 3 3 2 2 2
4 5 4 3 2 1 2 2 2 1 1 1 1 2 2 3 3 3 4 3 3 3
5 5 6 5 3 2 1 1 3 2 2 1 1 1 2 2 2 3 3 4 3 4
6 5 5 5 5 3 2 1 1 1 1 2 2 1 1 2 2 3 3 3 3 3
6 5 5 5 6 5 4 3 2 2 1 1 2 1 1 1 1 2 2 3 3 3
6 6 5 5 5 5 6 5 4 4 3 4 1 6 7 5 1 1 2 3 2 3
6 6 6 6 6 5 6 7 6 5 5 5 4 11 12 10 1 2 2 2 2 2
7 7 7 7 7 6 6 7 7 6 6 5 5 12 13 14 7 2 1 1 1 2
8 8 8 8 7 7 7 7 7 7 6 7 8 12 13 14 7 2 2 2 1 1
8 8 9 9 8 8 7 7 7 7 8 10 9 12 13 13 11 8 4 2 1 9
8 8 8 9 9 9 9 8 8 9 8 8 9 10 14 14 12 12 11 6 3 2